Погода в Листвянке

Россия / Алтайский край     52°45′26″N   83°58′36″E
темп.,
°C
ветер,
м/с
пор.,
м/с
влажн.,
%
обл.,
%
осадки,
мм/ч
давл.,
гПа
погр.,
м
14 мая, пт
пт1401:00+11зсз2776100 0.0 1014200
04:00+9сз248182 0.0 101491
07:00+11сз2581100 0.0 1016204
10:00+16ссз345299 0.0 1016750
13:00+20с4437100 0.0 10172310
16:00+20ссз553360 0.0 10182382
19:00+18ссз4536100 0.0 10211728
22:00+12ссз2757100 0.0 1024159
15 мая, сб
сб1501:00+10св2261100 0.0 102521
04:00+8вюв116530 0.0 102510
07:00+10юв006027 0.0 102640
10:00+17юз11365 0.0 1025724
13:00+21з222532 0.0 10241314
16:00+22зсз232698 0.0 10221469
19:00+21зюз233498 0.0 1021432
22:00+15зюз22495 0.0 102111
16 мая, вс
вс1601:00+14ююз245235 0.0 102053
04:00+13ююз265279 0.0 1019122
07:00+14ююз310545 0.0 1018248
10:00+21юз58345 0.0 1017747
13:00+25зюз57368 0.3 10161525
16:00+28зюз582958 0.0 10133175
19:00+27зюз473412 0.0 10111823
22:00+16ссв2580100 0.7 1015168
17 мая, пн
пн1701:00+15зюз2792100 3.1 1013244
04:00+14зюз31093100 3.4 1013369
07:00+14з27935 4.3 1013322
10:00+15ссз3686100 0.0 1015731
13:00+17сз347399 0.0 1017832
16:00+22сз2444100 0.0 10161906
19:00+21ссз234783 0.0 10161345
22:00+15в22685 0.0 101613
18 мая, вт
вт1801:00+13ю22765 0.0 101625
04:00+12ю38815 0.0 1014154
07:00+14юз312795 0.3 1013327
10:00+22юз6124988 0.0 1010818
13:00+26зюз583899 0.0 10091246
16:00+29зсз592857 0.0 10073001
19:00+22ю2560100 1.1 1005216
22:00+16ююз358499 0.9 1007121